Bradshaw AFB, HI

5:54 AM HST on December 09, 2019 (GMT -1000)
Bradshaw Army Air Field

Weather History for PHSF - November, 2019

Change the Weather History Date:

Saturday, November 16, 2019

  Actual Average Record
Temperature  
Mean Temperature 62 °F -  
Max Temperature 75 °F 65 °F 78 °F (2013)
Min Temperature 48 °F 46 °F 33 °F (1999)
Degree Days  
Heating Degree Days 4    
Growing Degree Days 12 (Base 50)    
Moisture  
Dew Point 48 °F    
Average Humidity 69    
Maximum Humidity 94    
Minimum Humidity 27    
Precipitation  
Precipitation 0.00 in - - ()
Sea Level Pressure  
Sea Level Pressure 29.99 in    
Wind  
Wind Speed 5 mph (NW)    
Max Wind Speed 17 mph    
Max Gust Speed 24 mph    
Visibility 10 miles    
Events Rain , Thunderstorm    
Averages and records for this station are not official NWS values.
T = Trace of Precipitation, MM = Missing Value Source: NWS Daily Summary

Daily Weather History Graph

Daily Weather History Graph

Search for Another Location

Airport or City:

Astronomy

Nov. 16, 2019 Rise Set
Actual Time 6:31 AM HST 5:42 PM HST
Civil Twilight 6:08 AM HST 6:05 PM HST
Nautical Twilight 5:41 AM HST 6:32 PM HST
Astronomical Twilight 5:14 AM HST 6:58 PM HST
Moon 9:38 PM HST (11/16) 10:21 AM HST (11/16)
Length of Visible Light 11h 57m
Length of Day
11h 11m
Waning Gibbous, 81% of the Moon is Illuminated
Nov 16
Waning Gibbous
Nov 19
Last Quarter
Nov 26
New
Dec 3
First Quarter
Dec 11
Full

Hourly Weather History & Observations

Time (HST) Temp. Dew Point Humidity Pressure Visibility Wind Dir Wind Speed Gust Speed Precip Events Conditions
12:58 AM 48.2 °F 40.1 °F 74% 30.03 in 8.0 mi ESE 3.5 mph - N/A   Clear
1:58 AM 48.6 °F 38.1 °F 67% 30.01 in 7.0 mi SE 6.9 mph - N/A   Clear
2:58 AM 48.2 °F 34.0 °F 58% 29.99 in 8.0 mi ESE 3.5 mph - N/A   Clear
3:58 AM 48.0 °F 33.8 °F 58% 30.00 in 9.0 mi ESE 8.1 mph - N/A   Clear
4:58 AM 52.7 °F 36.1 °F 53% 30.02 in 10.0 mi Calm Calm - N/A   Clear
5:58 AM 48.7 °F 33.1 °F 55% 30.05 in 6.0 mi SE 6.9 mph - N/A   Haze
6:58 AM 51.3 °F 32.7 °F 49% 30.06 in 10.0 mi Calm Calm - N/A   Clear
7:58 AM 63.3 °F 37.9 °F 39% 30.05 in 10.0 mi Calm Calm - N/A   Clear
8:58 AM 66.4 °F 39.6 °F 37% 30.06 in 10.0 mi Calm Calm - N/A   Clear
9:58 AM 69.8 °F 41.5 °F 36% 30.05 in 10.0 mi NNW 8.1 mph - N/A   Clear
10:58 AM 74.5 °F 40.3 °F 29% 30.01 in 10.0 mi WNW 10.4 mph - N/A   Clear
11:58 AM 75.7 °F 39.7 °F 27% 29.98 in 10.0 mi NNW 12.7 mph 19.6 mph N/A   Partly Cloudy
12:58 PM 74.5 °F 44.6 °F 34% 29.96 in 10.0 mi NNW 17.3 mph 21.9 mph N/A   Clear
1:58 PM 70.2 °F 52.7 °F 54% 29.97 in 10.0 mi NNW 15.0 mph - N/A   Partly Cloudy
2:58 PM 70.9 °F 53.4 °F 54% 29.96 in 10.0 mi NW 11.5 mph - N/A   Partly Cloudy
3:58 PM 67.8 °F 57.0 °F 68% 29.95 in 10.0 mi NW 16.1 mph 24.2 mph N/A   Clear
4:53 PM 60.8 °F 57.2 °F 88% 29.99 in 10.0 mi WSW 3.5 mph - N/A   Overcast
4:58 PM 60.8 °F 57.2 °F 88% 30.00 in 10.0 mi Calm Calm - N/A   Overcast
5:24 PM 60.8 °F 57.2 °F 88% 30.01 in 9.0 mi Calm Calm - N/A Rain Light Rain
5:40 PM 60.8 °F 57.2 °F 88% 30.01 in 9.0 mi Calm Calm - N/A   Mostly Cloudy
5:58 PM 61.0 °F 56.7 °F 86% 30.00 in 10.0 mi SSE 4.6 mph - 0.00 in   Mostly Cloudy
6:58 PM 62.6 °F 52.7 °F 70% 29.98 in 10.0 mi SSE 9.2 mph - N/A   Partly Cloudy
7:58 PM 64.9 °F 40.1 °F 40% 29.93 in 10.0 mi West 6.9 mph - N/A   Clear
8:58 PM 56.3 °F 53.1 °F 89% 29.97 in 10.0 mi Calm Calm - N/A   Mostly Cloudy
9:08 PM 57.2 °F 53.6 °F 88% 29.97 in 7.0 mi Calm Calm - N/A   Mostly Cloudy
9:43 PM 57.2 °F 55.4 °F 94% 29.98 in 10.0 mi Calm Calm - N/A   Mostly Cloudy
9:58 PM 56.5 °F 54.3 °F 92% 29.97 in 10.0 mi North 4.6 mph - N/A   Mostly Cloudy
10:13 PM 57.2 °F 53.6 °F 88% 29.97 in 10.0 mi North 3.5 mph - N/A   Mostly Cloudy
10:58 PM 57.9 °F 54.3 °F 88% 29.96 in 10.0 mi West 5.8 mph - N/A   Mostly Cloudy
11:03 PM 57.2 °F 53.6 °F 88% 29.96 in 10.0 mi WNW 5.8 mph - N/A   Mostly Cloudy
11:08 PM 57.2 °F 55.4 °F 94% 29.96 in 10.0 mi North 3.5 mph - N/A   Mostly Cloudy
11:23 PM 57.2 °F 53.6 °F 88% 29.96 in 10.0 mi Calm Calm - N/A   Mostly Cloudy
11:38 PM 55.4 °F 53.6 °F 94% 29.95 in 10.0 mi Calm Calm - N/A   Mostly Cloudy
11:40 PM 55.4 °F 53.6 °F 94% 29.95 in 10.0 mi Calm Calm - N/A Thunderstorm Mostly Cloudy
11:58 PM 53.6 °F 51.6 °F 93% 29.94 in 10.0 mi Calm Calm - N/A   Scattered Clouds